Regional Weather Roundup
Issued by NWS

Home | Current Version | Previous Version | Text Only | Print | Product List | Glossary Off
Versions: 1 2 3 4 5 6 7 8 9 10 11 12 13 14 15 16 17 18 19 20 21 22 23 24 25 26 27 28 29 30 31 32 33 34 35 36 37 38 39 40 41 42 43 44 45 46 47 48 49 50

000
ASUS43 KIND 261800
RWRIN

WEATHER ROUNDUP FOR INDIANA
NATIONAL WEATHER SERVICE INDIANAPOLIS IN
200 PM EDT FRI MAY 26 2017

NOTE: "FAIR" INDICATES FEW OR NO CLOUDS BELOW 12,000 FEET WITH NO
SIGNIFICANT WEATHER AND/OR OBSTRUCTIONS TO VISIBILITY.

* - STATION DOES NOT REPORT WEATHER SUCH AS PRECIPITATION OR FOG.

+ - STATION NOT QUALITY CONTROLLED BY THE NATIONAL WEATHER SERVICE.
    USE DATA WITH CAUTION...ESPECIALLY DEWPOINT AND RELATIVE
    HUMIDITY OBSERVATIONS.

INZ001>003-010>013-019-020-261900-
NORTHWEST INDIANA

CITY           SKY/WX    TMP DP  RH WIND       PRES   REMARKS
GARY /AIRPORT/ PTSUNNY   68  54  60 NE10      29.84R
MICHIGAN CITY+ CLOUDY    70  54  56 E3        29.84F
MONTICELLO +   MOSUNNY   71  57  61 SE5       29.84S
6HR MIN TEMP:  54; 6HR MAX TEMP:  72;

RENSSELAER +   PTSUNNY   72  54  53 SE10      29.84S

$$

LMZ046-743>745-261900-
SOUTHERN LAKE MICHIGAN

STATION/POSITION TIME  TEMP    WIND        PRES    WAVE
                       AIR SEA DIR/SP/G            HT
                 (UTC) (F)     (DEG/KT/KT) (MB)    (FT)
BURNS HARBOR     1740   60      70/ 10/ 13 1010.8S
MICHIGAN CITY    1730   56      40/  8/  9   N/A
5NW MICH CITY    1750   55 53   50/  8/  8   N/A     1

$$

INZ004-005-014>016-021>024-261900-
NORTH CENTRAL INDIANA

CITY           SKY/WX    TMP DP  RH WIND       PRES   REMARKS
ELKHART        CLOUDY    68  50  52 CALM      29.84F
GOSHEN         MOSUNNY   71  52  50 SE3       29.84F
6HR MIN TEMP:  53; 6HR MAX TEMP:  72;

SOUTH BEND     CLOUDY    68  54  60 CALM      29.84F
6HR MIN TEMP:  52; 6HR MAX TEMP:  70;


$$

INZ006>009-017-018-025>027-261900-
NORTHEAST INDIANA

CITY           SKY/WX    TMP DP  RH WIND       PRES   REMARKS
ANGOLA *+      MOSUNNY   70  63  78 VRB3      29.84F
FORT WAYNE     PTSUNNY   70  55  59 W3        29.86F
6HR MIN TEMP:  55; 6HR MAX TEMP:  72;

KENDALLVILLE + MOSUNNY   70  54  57 NW3       29.85F

$$

INZ028-029-035-036-043>045-051>053-261900-
WEST CENTRAL INDIANA

CITY           SKY/WX    TMP DP  RH WIND       PRES   REMARKS
GREENCASTLE +  SUNNY     73  59  60 SE8       29.84F
LAFAYETTE      PTSUNNY   72  58  61 S7        29.82F
6HR MIN TEMP:  53; 6HR MAX TEMP:  73;

TERRE HAUTE    SUNNY     78  59  51 SE15      29.80F
6HR MIN TEMP:  57; 6HR MAX TEMP:  78;


$$

INZ030>032-037>040-046>048-054>057-064-065-261900-
CENTRAL INDIANA

CITY           SKY/WX    TMP DP  RH WIND       PRES   REMARKS
ANDERSON       SUNNY     73  61  64 W5        29.89F
COLUMBUS       MOSUNNY   75  54  46 S14       29.87F
INDIANAPOLIS   MOSUNNY   75  58  55 SW7       29.84F
6HR MIN TEMP:  57; 6HR MAX TEMP:  75;

-EAGLE CREEK   MOSUNNY   75  57  53 VRB7      29.84F
6HR MIN TEMP:  56; 6HR MAX TEMP:  76;

KOKOMO +       PTSUNNY   71  58  63 S8        29.87S
6HR MIN TEMP:  56; 6HR MAX TEMP:  71;

SHELBYVILLE    CLOUDY    77  58  51 VRB5      29.86F
6HR MIN TEMP:  58; 6HR MAX TEMP:  77;


$$

INZ033-034-041-042-049-050-058-059-261900-
EAST CENTRAL INDIANA

CITY           SKY/WX    TMP DP  RH WIND       PRES   REMARKS
MUNCIE         CLOUDY    72  56  57 SW7       29.87F
6HR MIN TEMP:  58; 6HR MAX TEMP:  73;

RICHMOND +     PTSUNNY   70  57  64 W9        29.91F

$$

INZ060-061-067>069-081>083-085>088-261900-
SOUTHWEST INDIANA

CITY           SKY/WX    TMP DP  RH WIND       PRES   REMARKS
EVANSVILLE     SUNNY     80  61  52 S14G22    29.81F
6HR MIN TEMP:  62; 6HR MAX TEMP:  80;

HUNTINGBURG *+ PTSUNNY   77  64  64 S13G21    29.84F
6HR MIN TEMP:  59; 6HR MAX TEMP:  77;


$$

INZ062-063-066-070>080-084-089>092-261900-
SOUTH CENTRAL AND SOUTHEAST INDIANA

CITY           SKY/WX    TMP DP  RH WIND       PRES   REMARKS
BLOOMINGTON    SUNNY     78  59  51 SE8G17    29.83F
6HR MIN TEMP:  54; 6HR MAX TEMP:  78;

MADISON *+     MOSUNNY   77  54  44 S9        29.91F
SEYMOUR +      PTSUNNY   77  57  50 S10G16    29.86F

$$





USA.gov is the U.S. government's official web portal to all federal, state and local government web resources and services.